Temperature
21 21 21 21 18 17 19 20 20 20 20 20 20 20 19 18 18 17 17 17 17 18 18 17 17 17 17 17 18 18 17 18 18 18 18 17 17 17 17 17 17 17 18 18 17 17 17 17 17
21 21 21 20 17 18 19 20 20 20 21 21 20 19 19 18 18 17 17 17 18 18 18 17 17 17 17 17 17 18 18 18 18 18 18 17 17 17 17 17 17 17 17 17 17 17 17 17 17
21 21 21 17 18 18 19 20 20 21 21 21 20 19 18 18 17 17 17 17 18 18 18 17 17 17 17 17 17 18 18 18 17 17 17 17 17 17 17 17 17 17 17 17 17 17 17 17 17
21 21 20 18 19 19 20 20 20 21 21 20 19 18 18 18 18 18 17 18 18 18 18 17 17 17 17 17 17 17 17 17 17 17 17 17 17 17 17 17 17 17 17 17 17 17 17 17 17
21 21 18 18 19 20 20 21 21 20 20 19 19 18 18 18 18 18 18 18 18 17 17 17 17 17 17 17 17 17 17 17 17 17 17 17 17 17 17 17 17 17 17 17 17 17 17 17 17
21 18 17 18 19 20 20 21 21 20 19 19 19 18 17 18 18 17 18 18 18 17 17 17 17 17 17 17 17 17 17 17 17 17 17 17 17 17 17 17 17 17 17 17 17 16 16 16 16
20 17 18 19 19 20 21 21 21 19 19 19 19 17 17 17 18 17 17 17 17 17 17 17 17 17 17 17 17 17 17 17 16 16 16 16 16 16 16 16 16 16 16 16 16 16 16 16 16
22 17 18 18 19 20 21 21 21 20 20 19 19 18 17 17 18 18 17 17 17 17 17 17 17 17 17 17 17 16 16 16 16 16 16 16 16 16 16 16 16 16 16 16 16 16 16 16 16
22 17 17 19 19 20 21 21 21 20 20 19 19 19 18 18 18 18 17 17 17 17 17 17 17 17 17 17 16 16 16 16 16 16 16 16 16 16 16 16 16 16 16 16 16 16 16 16 16
21 17 19 20 20 19 20 20 20 20 19 18 18 18 18 18 18 17 17 17 17 17 17 17 17 17 17 16 16 16 16 16 16 16 16 16 16 16 16 16 16 16 16 16 16 15 16 16 16
20 18 19 20 21 21 20 20 20 19 18 18 18 18 18 18 17 17 17 17 17 17 17 17 17 17 16 16 16 16 16 16 16 16 16 16 16 16 16 16 16 16 15 15 15 15 15 15 15
20 20 21 21 21 21 20 20 20 19 19 19 19 19 18 18 18 17 17 17 17 17 17 17 17 17 16 16 16 16 16 16 16 16 16 16 16 16 16 15 15 15 15 15 15 15 15 15 15
20 20 21 21 21 21 20 20 19 19 20 19 19 18 18 18 18 17 17 17 17 17 17 16 16 16 16 16 16 16 16 16 16 16 16 15 15 16 15 15 15 15 15 15 15 15 15 15 15
20 20 20 21 21 21 20 19 19 19 19 19 18 18 18 18 18 17 17 17 17 17 17 17 16 16 16 16 16 16 16 16 16 16 16 15 15 15 15 15 15 15 15 15 15 15 15 15 15
21 20 20 20 20 20 20 19 18 19 19 18 18 18 18 18 18 18 17 17 17 17 17 17 16 16 16 16 16 16 16 16 16 15 15 15 15 15 15 15 15 15 15 15 15 15 15 15 14
20 19 18 19 20 20 19 18 18 19 19 18 18 18 18 18 18 18 17 17 17 17 17 17 16 16 16 16 16 16 15 15 15 15 15 15 15 15 15 15 15 15 15 15 15 15 15 14 14
19 18 18 19 20 19 19 18 18 19 18 18 18 18 18 18 18 17 17 17 17 17 17 17 16 16 16 16 16 15 15 15 15 15 15 15 15 15 15 15 15 15 15 15 15 14 14 14 14
18 18 19 19 19 19 18 17 17 18 18 17 17 17 17 17 17 17 17 17 17 17 17 16 16 16 16 16 15 15 15 15 15 15 15 15 15 14 15 14 14 14 14 14 14 14 14 14 14
19 19 19 19 20 19 18 17 17 17 17 17 17 17 17 17 17 17 17 17 17 17 17 16 16 16 16 16 15 15 15 15 14 14 14 14 14 14 14 14 14 14 14 14 14 14 14 13 13
20 19 19 19 20 19 18 17 17 17 17 17 17 17 17 17 17 17 17 17 17 17 16 16 16 16 16 15 15 15 15 14 14 14 14 14 14 14 14 14 14 14 14 14 14 13 13 13 13
19 19 19 19 19 19 18 17 17 17 17 17 17 17 17 17 17 17 17 17 16 16 16 16 16 15 15 15 15 14 14 14 14 14 14 14 14 13 13 13 13 13 13 13 13 13 13 13 13
19 20 20 19 18 16 18 16 16 16 16 16 16 17 17 17 17 16 16 16 16 16 16 16 15 15 15 15 14 14 14 14 14 13 13 13 13 13 13 13 13 13 13 13 13 13 12 12 12
20 20 20 19 18 17 17 16 15 15 16 16 16 16 17 17 16 16 16 16 16 16 15 15 15 15 15 14 14 14 14 14 13 13 13 13 13 13 13 12 12 12 12 12 12 12 12 12 12
20 19 18 16 16 16 17 16 15 15 16 16 16 16 17 16 16 16 16 16 15 15 15 15 15 15 14 14 14 14 13 13 13 13 13 13 12 12 12 12 12 12 12 12 12 12 12 11 11
18 16 16 16 15 15 16 16 15 16 16 16 16 16 16 16 16 16 16 16 15 15 15 15 14 14 14 14 14 13 13 13 13 13 12 12 12 12 12 11 11 11 11 11 11 11 11 11 11
18 17 16 16 15 15 16 16 16 16 17 17 17 16 16 16 16 16 16 15 15 15 15 14 14 14 14 13 13 13 13 13 13 12 12 12 12 12 11 11 11 11 11 11 11 11 11 10 10
18 17 16 15 16 15 15 16 16 16 16 16 15 15 15 15 16 15 15 15 15 15 14 14 14 14 13 13 13 13 13 12 12 12 12 12 12 11 11 11 11 11 11 11 10 10 10 10 10
18 17 15 15 15 15 15 15 15 15 15 15 15 15 15 15 15 15 15 15 15 14 14 14 14 13 13 13 13 12 12 12 12 12 12 12 11 11 11 11 11 10 10 10 10 10 10 10 10
18 17 15 14 14 14 14 15 16 15 15 14 14 15 15 15 15 15 15 14 14 14 14 13 13 13 13 12 12 12 12 12 12 12 12 11 11 11 11 11 10 10 10 10 10 10 9 9 9
18 17 15 14 14 13 13 14 15 15 14 14 14 14 14 14 14 14 14 14 14 13 13 13 13 13 13 12 12 12 12 12 12 11 11 11 11 11 11 10 10 10 10 10 9 9 9 9 9
Wind_Speed
1 0 2 3 5 5 3 2 2 3 4 5 8 9 8 6 4 5 1 6 6 4 4 6 7 7 8 9 9 9 9 10 10 10 11 11 10 10 10 10 10 10 10 9 8 8 8 8 8
0 1 3 4 5 4 2 1 4 3 4 5 7 8 8 6 5 6 3 5 6 5 5 6 7 8 8 9 9 9 9 10 10 10 10 10 10 10 10 10 10 10 10 9 9 9 8 8 8
1 1 4 4 4 3 3 1 4 5 5 5 5 6 5 4 4 3 5 7 6 5 5 6 8 9 9 9 9 9 9 10 10 10 10 10 10 10 10 10 10 10 10 9 9 9 9 8 8
3 4 5 6 4 1 4 3 5 6 6 6 6 6 4 3 3 5 7 7 7 5 5 7 8 9 9 9 9 9 10 9 10 9 9 10 10 10 10 10 10 9 9 9 8 9 8 8 7
4 5 5 4 2 1 2 3 5 6 4 6 7 6 4 3 6 9 8 7 7 4 4 7 9 10 9 9 10 10 10 10 10 9 9 10 10 10 10 10 10 9 8 8 8 8 8 8 7
4 4 5 2 1 1 1 3 7 8 6 6 7 6 3 2 6 6 7 7 6 6 4 7 9 10 10 9 10 10 10 10 10 9 10 10 10 10 10 10 9 9 9 8 8 8 8 8 7
4 4 3 3 2 2 2 4 6 7 5 4 5 5 3 1 4 6 7 6 5 6 5 6 7 8 9 9 9 9 9 10 10 10 10 9 9 9 9 8 8 8 8 8 8 7 7 7 7
5 5 3 2 3 1 1 4 5 6 5 4 4 6 4 4 5 7 7 6 5 5 4 4 5 6 6 6 7 7 8 8 8 9 10 10 8 7 7 7 7 8 8 8 8 7 7 7 8
5 5 2 1 3 2 2 5 4 5 7 5 4 4 7 8 8 8 7 5 4 4 3 3 4 4 4 4 5 5 6 7 7 7 8 8 7 6 5 6 7 7 7 8 8 9 8 8 8
5 4 2 2 4 4 3 4 4 5 7 5 6 7 8 8 8 8 7 5 5 4 3 3 3 3 3 4 4 4 5 6 6 6 6 6 6 6 6 7 8 8 7 8 9 9 9 8 7
4 5 3 2 4 5 4 3 3 7 4 5 10 10 8 8 7 6 6 5 5 4 4 3 4 4 4 3 4 4 5 5 5 5 5 5 5 5 6 5 6 6 7 7 7 8 7 7 6
4 2 3 3 4 5 4 3 4 4 5 8 12 13 9 9 7 6 5 5 5 5 4 4 4 4 4 4 4 4 4 4 4 4 5 5 4 4 4 4 4 5 5 5 5 5 6 6 6
4 2 3 3 4 5 5 4 4 3 6 9 11 10 9 8 6 4 5 5 5 5 4 5 5 4 4 4 3 4 4 4 4 4 5 6 4 2 3 3 4 4 5 5 5 5 5 5 6
4 4 2 2 2 2 5 2 4 4 8 11 10 9 7 7 6 5 5 4 4 4 4 4 5 4 5 4 3 3 4 5 5 5 5 6 5 4 3 3 3 4 5 5 5 5 4 4 4
4 4 1 0 1 2 5 2 2 6 9 10 9 8 7 6 6 6 6 5 4 4 4 5 6 5 5 4 4 5 5 6 5 6 7 7 7 6 5 3 3 4 5 5 5 6 5 4 5
2 3 1 3 3 3 5 2 4 5 8 9 8 7 7 6 6 6 6 5 5 4 5 5 6 6 5 5 5 5 5 6 6 6 7 8 8 8 6 4 3 4 5 4 3 4 4 4 4
2 2 3 3 3 4 4 4 4 5 9 8 8 7 7 6 5 5 5 6 6 5 5 5 5 6 6 6 5 6 6 6 6 6 6 7 7 8 6 4 4 5 5 4 3 4 3 4 4
4 4 3 4 4 4 4 3 3 5 7 7 6 6 6 7 6 6 5 5 5 6 6 6 6 5 5 5 5 5 5 4 5 5 5 6 6 7 6 5 5 5 4 4 4 4 4 3 3
4 4 3 4 3 4 5 5 5 6 6 6 6 7 7 7 5 5 5 5 5 5 6 6 6 5 5 3 3 3 2 2 2 4 5 6 6 6 6 5 4 4 4 4 3 3 4 4 3
2 2 1 2 2 3 4 4 4 5 7 9 9 9 8 6 4 5 4 5 5 5 5 5 5 5 5 4 3 2 2 2 1 3 4 5 6 5 5 5 3 3 4 5 4 4 3 3 3
0 2 3 3 1 0 3 2 3 3 3 5 6 7 9 9 8 6 5 4 4 4 4 5 5 5 5 5 4 3 3 3 3 2 2 3 5 5 6 5 4 4 4 3 3 3 3 2 2
2 3 3 3 2 3 3 2 4 3 3 4 5 6 7 8 7 7 6 5 4 4 4 4 4 5 5 6 6 6 4 2 1 1 1 2 4 5 6 5 5 4 3 3 2 3 2 2 1
3 3 1 1 2 1 0 2 5 1 3 5 6 7 7 8 8 8 7 6 5 4 4 4 4 4 4 5 6 6 4 2 1 1 2 2 3 4 5 4 4 4 3 2 3 3 3 2 2
0 4 5 5 4 2 3 4 4 3 5 4 5 6 7 8 8 7 6 5 4 3 3 4 4 3 3 4 5 6 5 4 3 2 2 1 1 2 3 4 4 3 3 2 2 2 3 2 2
5 5 4 5 3 4 1 3 4 5 3 5 6 6 6 6 7 7 6 5 5 4 4 4 4 3 3 3 4 5 5 5 4 3 3 2 1 1 1 2 3 2 2 3 3 2 2 2 2
1 6 5 3 3 4 2 2 3 3 1 3 4 5 5 5 5 6 6 5 5 4 4 4 4 3 3 3 3 3 4 4 3 3 3 3 3 2 2 3 3 3 3 3 3 2 1 2 1
2 2 5 5 1 1 2 2 3 5 4 3 2 4 5 6 6 6 6 5 5 4 4 4 4 3 2 3 3 3 3 4 3 3 3 3 3 3 3 3 3 2 3 3 3 2 1 2 1
4 4 5 3 1 2 3 2 3 3 2 1 1 3 4 5 5 5 6 6 5 4 3 3 3 3 3 3 3 3 3 3 4 3 3 3 3 2 3 2 2 2 2 2 3 2 1 2 1
1 2 3 3 3 4 2 4 2 4 2 2 1 2 2 3 4 5 5 4 4 3 3 3 3 2 2 2 2 2 2 2 3 3 3 3 3 3 4 3 3 2 2 2 2 1 1 2 1
4 3 5 3 2 3 3 4 5 1 2 2 1 1 2 2 2 3 4 3 3 3 3 3 3 3 3 3 3 2 2 2 3 3 2 2 3 3 4 3 3 3 2 2 2 2 1 1 1
Wind_Direction
222 62 95 64 58 57 45 1 91 58 52 51 69 80 84 66 85 123 154 130 123 124 112 107 99 93 88 86 85 81 80 84 85 83 81 80 80 82 84 82 83 85 83 82 83 83 86 92 94
46 92 66 59 79 77 24 11 87 84 123 109 72 73 76 68 74 107 114 136 130 126 117 108 99 98 93 89 85 84 82 85 86 84 83 81 80 81 82 84 85 83 82 80 79 80 84 88 88
1 77 79 67 80 129 147 182 121 86 86 83 72 57 70 91 97 127 153 146 128 119 119 115 102 97 95 94 90 86 85 86 88 87 86 84 82 82 82 83 84 83 82 80 77 78 82 84 84
68 47 55 71 79 142 152 164 125 96 68 60 89 66 62 74 118 135 141 136 120 118 121 119 112 103 97 93 91 89 88 87 88 89 88 86 84 83 84 82 82 83 81 80 78 78 79 79 76
68 73 64 65 82 94 126 135 112 96 76 79 92 91 64 34 108 125 132 130 123 125 127 124 117 108 100 94 90 89 90 89 89 87 85 87 85 84 84 82 79 79 79 79 79 78 76 72 69
57 69 83 87 89 49 74 102 96 89 96 95 94 100 84 93 119 131 130 129 129 129 124 123 123 115 107 99 93 88 87 89 91 88 85 86 85 84 84 83 78 75 75 75 76 74 72 69 69
106 91 105 121 90 63 98 100 96 106 98 102 113 99 112 114 134 130 126 127 123 118 111 113 120 118 113 106 100 96 90 89 89 86 83 83 85 84 82 81 75 71 70 71 69 66 69 67 65
124 98 77 87 109 103 105 93 97 103 98 100 103 121 152 181 138 121 113 111 111 102 105 111 117 116 114 112 109 102 96 92 89 87 83 77 77 79 78 78 76 72 68 67 61 56 57 57 59
88 80 95 164 150 160 113 96 71 82 91 72 73 119 150 146 123 110 101 94 105 108 114 113 119 122 124 120 113 102 96 93 89 84 85 76 64 62 64 70 73 71 67 63 59 55 57 55 55
86 113 182 190 154 145 110 108 118 89 83 74 73 85 113 119 119 117 120 123 127 133 137 131 128 129 125 114 94 81 83 84 81 77 78 72 69 62 60 63 60 59 60 56 55 56 54 53 55
113 145 158 123 129 119 103 85 91 111 102 146 139 135 128 121 123 126 132 140 146 146 138 139 131 128 119 99 92 79 77 76 69 71 74 76 70 62 57 52 46 41 44 43 46 52 53 53 57
105 132 143 137 120 109 114 104 79 106 165 160 148 144 138 138 142 146 145 141 133 130 130 137 135 120 115 102 90 84 81 75 63 62 80 91 79 68 61 53 39 39 43 43 46 51 53 56 60
102 113 100 120 109 115 104 107 117 136 140 137 137 138 143 147 149 152 150 141 132 131 137 139 134 127 113 100 96 89 80 79 77 70 76 91 89 84 67 59 54 49 52 56 53 49 52 56 60
155 136 130 131 118 113 120 118 111 168 144 139 139 142 148 151 149 138 136 135 134 136 139 135 128 118 108 104 100 93 82 75 70 66 71 83 87 83 80 65 52 48 51 60 63 59 60 55 60
122 111 80 218 146 157 115 71 165 175 151 147 150 154 150 152 149 149 152 151 153 142 129 125 127 112 110 110 105 93 81 80 71 63 67 75 82 82 79 72 52 43 55 61 62 55 57 59 57
80 90 170 253 182 164 119 204 229 173 154 159 160 158 155 159 160 159 156 150 149 139 131 128 128 118 112 105 97 90 83 77 72 68 68 70 77 82 79 74 58 52 56 54 65 56 58 54 54
51 177 219 253 203 156 143 201 227 180 162 169 167 164 165 163 161 162 157 154 149 144 130 117 120 125 118 106 95 86 78 71 70 69 63 68 75 81 82 76 59 61 60 50 64 60 67 66 57
219 209 203 216 214 145 148 194 217 185 171 175 171 165 164 166 175 168 155 152 144 140 126 120 117 118 111 100 86 73 68 63 64 66 62 69 72 77 81 78 60 63 64 51 55 69 60 68 64
186 173 199 232 196 147 175 200 213 194 174 174 176 174 173 180 182 161 150 146 135 128 122 125 124 124 119 111 105 96 86 69 59 65 66 71 73 76 76 79 70 67 72 63 61 78 68 51 50
114 130 189 270 213 166 186 222 222 193 192 186 184 183 179 174 169 169 156 140 139 139 139 140 143 138 135 136 135 132 123 94 81 57 56 64 74 80 86 88 83 75 74 60 52 67 75 52 50
28 173 197 217 295 89 131 319 280 252 213 191 189 186 178 174 171 166 156 146 131 131 144 146 150 145 141 133 116 95 68 52 41 38 34 43 76 83 86 92 91 86 85 81 62 68 86 86 30
267 255 192 172 110 259 173 230 278 243 222 200 199 188 181 175 166 161 156 151 150 153 149 143 143 141 138 133 129 128 125 129 175 156 77 41 66 77 86 90 91 89 85 89 83 73 75 99 82
236 259 188 152 148 306 242 155 288 261 219 226 206 188 176 172 166 167 168 167 162 155 147 146 134 128 134 137 141 137 134 145 131 87 80 58 45 66 81 90 91 89 88 94 81 71 74 87 107
134 34 32 44 70 313 246 165 271 241 228 212 200 186 174 168 166 165 164 155 154 147 132 124 127 126 138 138 139 147 150 144 126 113 112 97 62 59 70 87 88 90 90 93 93 84 83 82 88
60 75 32 2 4 265 262 144 253 266 229 184 178 179 171 168 164 162 159 158 159 151 141 132 129 133 143 144 146 157 159 153 155 162 157 147 132 102 106 97 92 93 101 104 91 89 84 86 90
145 131 149 200 237 281 346 206 266 315 74 130 147 152 149 148 157 161 161 159 162 160 151 143 140 144 153 152 163 165 161 160 170 180 174 173 181 183 154 120 113 111 107 102 88 91 95 88 84
122 181 175 152 228 281 298 307 333 10 34 65 123 144 161 169 169 167 160 157 155 156 163 161 156 155 159 164 162 163 161 160 172 184 178 177 183 166 135 127 122 116 110 102 98 89 90 88 79
140 152 85 105 155 274 295 283 270 277 279 351 151 173 190 182 171 162 165 171 167 164 157 144 151 164 173 170 171 160 166 167 163 156 164 171 166 144 138 137 133 124 114 107 106 97 91 89 73
80 84 98 120 154 164 248 270 266 226 203 171 169 165 161 172 174 174 176 176 166 154 151 154 159 150 158 169 164 153 167 162 152 153 173 178 167 157 159 161 154 144 134 124 115 120 105 98 58
148 158 137 148 246 176 181 261 327 170 141 137 139 116 107 115 153 167 167 159 157 161 167 172 175 173 176 165 148 156 166 155 156 173 187 169 167 164 161 155 154 161 157 143 147 165 149 154 165
Height
1499 1499 1499 1500 1504 1515 1518 1513 1508 1507 1507 1508 1507 1508 1511 1516 1519 1526 1523 1522 1522 1522 1522 1521 1521 1520 1519 1519 1518 1517 1517 1517 1516 1516 1516 1515 1515 1515 1514 1514 1514 1514 1514 1514 1514 1513 1513 1513 1514
1500 1500 1501 1501 1512 1525 1522 1512 1509 1508 1508 1508 1509 1511 1513 1517 1519 1521 1521 1522 1523 1522 1522 1522 1521 1521 1520 1519 1519 1518 1518 1517 1517 1517 1516 1516 1516 1515 1515 1515 1514 1514 1514 1514 1514 1514 1514 1514 1514
1500 1500 1502 1505 1515 1523 1519 1511 1508 1507 1508 1508 1511 1514 1516 1519 1520 1521 1522 1523 1523 1523 1522 1522 1521 1521 1520 1520 1519 1519 1518 1518 1518 1517 1517 1517 1516 1516 1516 1515 1515 1515 1515 1515 1514 1514 1514 1514 1514
1501 1502 1504 1512 1517 1514 1511 1509 1508 1508 1509 1510 1512 1517 1520 1522 1522 1522 1523 1523 1523 1523 1522 1522 1521 1521 1521 1520 1520 1520 1519 1519 1519 1518 1518 1518 1517 1517 1516 1516 1516 1516 1515 1515 1514 1514 1514 1514 1513
1502 1503 1511 1518 1516 1512 1509 1508 1508 1509 1511 1513 1514 1519 1522 1523 1523 1523 1524 1524 1524 1523 1522 1521 1521 1522 1522 1521 1521 1520 1520 1520 1520 1519 1519 1519 1518 1518 1518 1517 1517 1516 1516 1516 1515 1515 1514 1513 1513
1503 1505 1519 1524 1517 1512 1509 1508 1509 1511 1514 1515 1516 1519 1523 1524 1524 1525 1525 1525 1524 1523 1522 1521 1522 1523 1523 1522 1522 1522 1521 1521 1521 1521 1520 1520 1519 1519 1519 1518 1518 1518 1517 1516 1516 1515 1515 1514 1512
1504 1510 1518 1519 1518 1515 1511 1510 1510 1512 1514 1516 1517 1520 1524 1525 1525 1526 1526 1526 1526 1524 1523 1523 1523 1524 1524 1524 1524 1523 1523 1523 1523 1522 1522 1521 1521 1520 1520 1519 1519 1519 1518 1517 1517 1516 1515 1514 1513
1503 1509 1517 1519 1519 1516 1511 1510 1512 1513 1515 1517 1518 1520 1523 1525 1526 1527 1527 1527 1527 1526 1526 1525 1525 1525 1525 1525 1525 1525 1525 1524 1524 1523 1523 1523 1522 1522 1521 1521 1520 1520 1519 1518 1518 1517 1516 1515 1513
1504 1514 1521 1518 1516 1515 1511 1512 1514 1514 1516 1518 1518 1520 1522 1525 1526 1527 1528 1528 1528 1528 1528 1527 1527 1527 1527 1527 1527 1526 1526 1526 1525 1525 1524 1524 1523 1523 1523 1522 1521 1521 1520 1519 1519 1518 1517 1516 1514
1505 1518 1516 1511 1511 1512 1512 1512 1514 1516 1517 1519 1520 1522 1524 1525 1526 1527 1528 1528 1528 1529 1529 1529 1528 1528 1528 1528 1528 1528 1527 1527 1526 1526 1526 1525 1525 1524 1523 1523 1522 1522 1521 1520 1520 1519 1518 1517 1516
1506 1512 1511 1510 1510 1510 1512 1513 1514 1515 1518 1519 1519 1522 1524 1525 1527 1528 1529 1529 1530 1530 1530 1530 1530 1530 1529 1529 1529 1529 1528 1528 1528 1527 1527 1526 1526 1525 1524 1524 1523 1523 1522 1522 1521 1520 1519 1518 1517
1507 1509 1509 1510 1510 1511 1512 1514 1515 1515 1517 1518 1519 1521 1523 1525 1527 1528 1529 1530 1530 1530 1531 1531 1531 1531 1530 1530 1530 1530 1529 1529 1529 1528 1528 1527 1526 1526 1525 1525 1524 1524 1523 1523 1522 1521 1521 1520 1519
1508 1509 1509 1510 1511 1512 1513 1514 1515 1517 1517 1519 1521 1522 1523 1525 1527 1528 1529 1530 1530 1531 1531 1531 1531 1531 1531 1531 1531 1531 1530 1530 1530 1529 1529 1528 1527 1527 1526 1526 1525 1525 1524 1524 1523 1523 1522 1522 1521
1508 1509 1510 1511 1511 1512 1513 1515 1516 1518 1518 1519 1521 1522 1524 1526 1527 1528 1529 1530 1530 1531 1531 1531 1532 1532 1532 1532 1531 1531 1531 1531 1531 1530 1529 1529 1528 1528 1527 1527 1526 1526 1525 1525 1524 1524 1523 1523 1523
1508 1511 1513 1512 1512 1513 1514 1518 1517 1518 1519 1520 1521 1523 1524 1525 1527 1527 1528 1529 1530 1530 1531 1531 1531 1532 1532 1532 1532 1532 1532 1531 1531 1530 1530 1529 1529 1528 1528 1527 1527 1526 1526 1525 1525 1525 1525 1524 1524
1510 1515 1521 1514 1512 1512 1517 1524 1517 1518 1518 1520 1521 1522 1524 1525 1526 1527 1528 1529 1529 1530 1530 1531 1531 1532 1532 1532 1532 1532 1532 1531 1531 1531 1530 1530 1529 1529 1528 1528 1527 1527 1526 1526 1525 1525 1525 1524 1524
1516 1523 1522 1516 1511 1511 1516 1520 1516 1517 1517 1519 1520 1521 1523 1524 1526 1526 1527 1528 1529 1530 1530 1531 1531 1531 1532 1532 1532 1532 1532 1532 1531 1531 1531 1530 1530 1529 1528 1528 1527 1527 1526 1526 1525 1525 1525 1525 1525
1521 1521 1519 1517 1511 1512 1516 1518 1516 1516 1517 1518 1519 1521 1522 1523 1524 1525 1526 1527 1528 1529 1530 1530 1531 1531 1531 1532 1532 1532 1532 1532 1532 1531 1531 1530 1530 1529 1528 1528 1527 1527 1527 1526 1526 1525 1525 1525 1525
1510 1515 1517 1514 1507 1512 1517 1517 1516 1516 1516 1518 1519 1520 1521 1522 1524 1524 1525 1526 1528 1528 1529 1530 1530 1531 1531 1531 1531 1531 1531 1531 1531 1531 1531 1530 1529 1529 1528 1528 1527 1527 1527 1526 1526 1525 1525 1525 1525
1509 1515 1516 1512 1508 1511 1516 1517 1515 1514 1515 1515 1516 1518 1519 1521 1522 1524 1525 1525 1526 1527 1528 1529 1529 1530 1530 1530 1531 1531 1531 1531 1531 1531 1530 1530 1529 1529 1528 1527 1527 1527 1527 1526 1526 1526 1525 1525 1526
1511 1513 1513 1514 1510 1510 1516 1521 1517 1514 1514 1514 1515 1516 1517 1519 1520 1522 1524 1525 1526 1526 1527 1528 1528 1529 1529 1529 1530 1530 1530 1530 1530 1530 1529 1529 1529 1528 1527 1527 1527 1526 1526 1526 1526 1526 1525 1525 1525
1513 1505 1506 1509 1518 1524 1519 1533 1521 1516 1514 1513 1514 1515 1516 1517 1519 1520 1522 1523 1524 1525 1526 1527 1527 1528 1528 1528 1528 1529 1528 1528 1529 1529 1529 1528 1528 1527 1527 1526 1526 1526 1526 1525 1525 1525 1525 1525 1524
1506 1502 1505 1508 1516 1523 1522 1530 1527 1517 1517 1513 1512 1513 1514 1515 1517 1518 1520 1522 1523 1524 1525 1526 1526 1527 1527 1527 1528 1528 1528 1528 1528 1528 1528 1528 1527 1527 1526 1526 1525 1525 1525 1525 1525 1524 1524 1524 1524
1502 1506 1510 1516 1522 1532 1523 1529 1529 1520 1514 1510 1510 1511 1512 1514 1515 1517 1519 1521 1522 1523 1524 1525 1525 1525 1526 1526 1526 1526 1526 1526 1527 1527 1526 1526 1526 1526 1525 1525 1525 1525 1524 1524 1524 1524 1524 1523 1523
1506 1520 1534 1535 1540 1535 1521 1525 1526 1512 1508 1507 1508 1509 1511 1513 1514 1516 1517 1519 1520 1521 1522 1523 1523 1524 1524 1525 1525 1525 1525 1525 1525 1525 1525 1525 1525 1524 1524 1524 1524 1524 1524 1524 1524 1523 1523 1523 1523
1510 1518 1535 1542 1543 1535 1523 1526 1520 1510 1507 1507 1508 1509 1510 1512 1513 1515 1516 1517 1518 1520 1520 1521 1522 1522 1523 1523 1523 1524 1524 1524 1524 1524 1524 1524 1524 1523 1523 1523 1523 1523 1523 1523 1523 1522 1522 1522 1522
1511 1517 1517 1529 1531 1536 1531 1523 1516 1510 1509 1508 1508 1509 1510 1511 1512 1513 1514 1516 1517 1518 1519 1520 1520 1521 1521 1522 1522 1522 1522 1522 1522 1522 1522 1522 1522 1522 1522 1522 1522 1522 1522 1522 1521 1521 1521 1521 1521
1506 1511 1522 1529 1537 1542 1534 1529 1526 1516 1513 1511 1509 1509 1509 1510 1511 1512 1513 1514 1515 1516 1517 1518 1519 1519 1520 1520 1520 1520 1520 1520 1520 1520 1520 1521 1521 1521 1521 1521 1521 1521 1521 1520 1520 1520 1520 1520 1520
1510 1513 1520 1529 1531 1539 1542 1534 1515 1513 1511 1511 1510 1509 1510 1510 1510 1511 1512 1513 1513 1514 1515 1516 1517 1517 1518 1518 1519 1518 1518 1518 1518 1518 1518 1519 1519 1519 1519 1519 1519 1519 1519 1519 1519 1518 1518 1518 1518
1507 1512 1519 1530 1532 1533 1537 1534 1511 1510 1510 1510 1510 1510 1510 1510 1510 1510 1511 1512 1512 1513 1514 1514 1515 1515 1516 1516 1516 1516 1516 1516 1516 1516 1517 1517 1517 1517 1517 1517 1517 1517 1517 1517 1517 1517 1517 1517 1516